Year,Month,Day,Hour,Minute,Value (Times are PST for temperature in C)
2019,05,25,00,00,12.10
2019,05,25,00,01,12.10
2019,05,25,00,02,12.00
2019,05,25,00,03,12.00
2019,05,25,00,04,12.00
2019,05,25,00,05,12.00
2019,05,25,00,06,12.00
2019,05,25,00,07,12.00
2019,05,25,00,08,11.90
2019,05,25,00,09,11.90
2019,05,25,00,10,11.90
2019,05,25,00,11,11.90
2019,05,25,00,12,11.90
2019,05,25,00,13,11.90
2019,05,25,00,14,11.90
2019,05,25,00,15,11.80
2019,05,25,00,16,11.80
2019,05,25,00,17,11.80
2019,05,25,00,18,11.80
2019,05,25,00,19,11.80
2019,05,25,00,20,11.80
2019,05,25,00,21,11.80
2019,05,25,00,22,11.80
2019,05,25,00,23,11.70
2019,05,25,00,24,11.70
2019,05,25,00,25,11.70
2019,05,25,00,26,11.70
2019,05,25,00,27,11.70
2019,05,25,00,28,11.70
2019,05,25,00,29,11.70
2019,05,25,00,30,11.70
2019,05,25,00,31,11.60
2019,05,25,00,32,11.60
2019,05,25,00,33,11.60
2019,05,25,00,34,11.60
2019,05,25,00,35,11.60
2019,05,25,00,36,11.60
2019,05,25,00,37,11.50
2019,05,25,00,38,11.50
2019,05,25,00,39,11.40
2019,05,25,00,40,11.40
2019,05,25,00,41,11.40
2019,05,25,00,42,11.40
2019,05,25,00,43,11.30
2019,05,25,00,44,11.30
2019,05,25,00,45,11.30
2019,05,25,00,46,11.30
2019,05,25,00,47,11.20
2019,05,25,00,48,11.20
2019,05,25,00,49,11.20
2019,05,25,00,50,11.20
2019,05,25,00,51,11.20
2019,05,25,00,52,11.10
2019,05,25,00,53,11.10
2019,05,25,00,54,11.10
2019,05,25,00,55,11.10
2019,05,25,00,56,11.00
2019,05,25,00,57,11.00
2019,05,25,00,58,11.00
2019,05,25,00,59,11.00
2019,05,25,01,00,11.00
2019,05,25,01,01,11.00
2019,05,25,01,02,11.00
2019,05,25,01,03,11.00
2019,05,25,01,04,11.00
2019,05,25,01,05,11.00
2019,05,25,01,06,11.00
2019,05,25,01,07,11.00
2019,05,25,01,08,11.00
2019,05,25,01,09,11.00
2019,05,25,01,10,11.10
2019,05,25,01,11,11.10
2019,05,25,01,12,11.10
2019,05,25,01,13,11.00
2019,05,25,01,14,11.00
2019,05,25,01,15,11.00
2019,05,25,01,16,11.00
2019,05,25,01,17,11.00
2019,05,25,01,18,11.00
2019,05,25,01,19,11.00
2019,05,25,01,20,11.00
2019,05,25,01,21,11.00
2019,05,25,01,22,11.00
2019,05,25,01,23,11.00
2019,05,25,01,24,11.00
2019,05,25,01,25,11.00
2019,05,25,01,26,11.00
2019,05,25,01,27,11.00
2019,05,25,01,28,11.00
2019,05,25,01,29,11.00
2019,05,25,01,30,11.00
2019,05,25,01,31,10.90
2019,05,25,01,32,10.90
2019,05,25,01,33,10.90
2019,05,25,01,34,10.90
2019,05,25,01,35,10.90
2019,05,25,01,36,10.90
2019,05,25,01,37,10.90
2019,05,25,01,38,10.90
2019,05,25,01,39,10.80
2019,05,25,01,40,10.80
2019,05,25,01,41,10.80
2019,05,25,01,42,10.80
2019,05,25,01,43,10.80
2019,05,25,01,44,10.80
2019,05,25,01,45,10.80
2019,05,25,01,46,10.80
2019,05,25,01,47,10.80
2019,05,25,01,48,10.80
2019,05,25,01,49,10.80
2019,05,25,01,50,10.80
2019,05,25,01,51,10.80
2019,05,25,01,52,10.80
2019,05,25,01,53,10.80
2019,05,25,01,54,10.80
2019,05,25,01,55,10.70
2019,05,25,01,56,10.70
2019,05,25,01,57,10.70
2019,05,25,01,58,10.70
2019,05,25,01,59,10.70
2019,05,25,02,00,10.70
2019,05,25,02,01,10.70
2019,05,25,02,02,10.70
2019,05,25,02,03,10.70
2019,05,25,02,04,10.70
2019,05,25,02,05,10.70
2019,05,25,02,06,10.60
2019,05,25,02,07,10.70
2019,05,25,02,08,10.60
2019,05,25,02,09,10.60
2019,05,25,02,10,10.60
2019,05,25,02,11,10.60
2019,05,25,02,12,10.60
2019,05,25,02,13,10.60
2019,05,25,02,14,10.60
2019,05,25,02,15,10.60
2019,05,25,02,16,10.60
2019,05,25,02,17,10.60
2019,05,25,02,18,10.60
2019,05,25,02,19,10.60
2019,05,25,02,20,10.60
2019,05,25,02,21,10.60
2019,05,25,02,22,10.60
2019,05,25,02,23,10.60
2019,05,25,02,24,10.70
2019,05,25,02,25,10.70
2019,05,25,02,26,10.70
2019,05,25,02,27,10.70
2019,05,25,02,28,10.70
2019,05,25,02,29,10.60
2019,05,25,02,30,10.60
2019,05,25,02,31,10.60
2019,05,25,02,32,10.60
2019,05,25,02,33,10.60
2019,05,25,02,34,10.60
2019,05,25,02,35,10.60
2019,05,25,02,36,10.60
2019,05,25,02,37,10.60
2019,05,25,02,38,10.60
2019,05,25,02,39,10.60
2019,05,25,02,40,10.60
2019,05,25,02,41,10.60
2019,05,25,02,42,10.60
2019,05,25,02,43,10.60
2019,05,25,02,44,10.60
2019,05,25,02,45,10.60
2019,05,25,02,46,10.60
2019,05,25,02,47,10.60
2019,05,25,02,48,10.60
2019,05,25,02,49,10.60
2019,05,25,02,50,10.60
2019,05,25,02,51,10.60
2019,05,25,02,52,10.60
2019,05,25,02,53,10.60
2019,05,25,02,54,10.60
2019,05,25,02,55,10.60
2019,05,25,02,56,10.60
2019,05,25,02,57,10.60
2019,05,25,02,58,10.50
2019,05,25,02,59,10.50
2019,05,25,03,00,10.50
2019,05,25,03,01,10.50
2019,05,25,03,02,10.50
2019,05,25,03,03,10.50
2019,05,25,03,04,10.40
2019,05,25,03,05,10.40
2019,05,25,03,06,10.40
2019,05,25,03,07,10.40
2019,05,25,03,08,10.40
2019,05,25,03,09,10.40
2019,05,25,03,10,10.40
2019,05,25,03,11,10.40
2019,05,25,03,12,10.30
2019,05,25,03,13,10.30
2019,05,25,03,14,10.30
2019,05,25,03,15,10.20
2019,05,25,03,16,10.20
2019,05,25,03,17,10.20
2019,05,25,03,18,10.10
2019,05,25,03,19,10.10
2019,05,25,03,20,10.10
2019,05,25,03,21,10.00
2019,05,25,03,22,10.00
2019,05,25,03,23,10.00
2019,05,25,03,24,10.00
2019,05,25,03,25,9.90
2019,05,25,03,26,9.90
2019,05,25,03,27,9.90
2019,05,25,03,28,9.90
2019,05,25,03,29,9.90
2019,05,25,03,30,9.90
2019,05,25,03,31,9.90
2019,05,25,03,32,9.90
2019,05,25,03,33,9.90
2019,05,25,03,34,9.80
2019,05,25,03,35,9.80
2019,05,25,03,36,9.70
2019,05,25,03,37,9.70
2019,05,25,03,38,9.70
2019,05,25,03,39,9.60
2019,05,25,03,40,9.60
2019,05,25,03,41,9.50
2019,05,25,03,42,9.50
2019,05,25,03,43,9.50
2019,05,25,03,44,9.40
2019,05,25,03,45,9.40
2019,05,25,03,46,9.30
2019,05,25,03,47,9.30
2019,05,25,03,48,9.20
2019,05,25,03,49,9.20
2019,05,25,03,50,9.20
2019,05,25,03,51,9.10
2019,05,25,03,52,9.10
2019,05,25,03,53,9.10
2019,05,25,03,54,9.10
2019,05,25,03,55,9.10
2019,05,25,03,56,9.00
2019,05,25,03,57,9.00
2019,05,25,03,58,9.00
2019,05,25,03,59,8.90
2019,05,25,04,00,8.90
2019,05,25,04,01,8.90
2019,05,25,04,02,8.90
2019,05,25,04,03,8.90
2019,05,25,04,04,8.80
2019,05,25,04,05,8.80
2019,05,25,04,06,8.80
2019,05,25,04,07,8.70
2019,05,25,04,08,8.70
2019,05,25,04,09,8.60
2019,05,25,04,10,8.60
2019,05,25,04,11,8.50
2019,05,25,04,12,8.50
2019,05,25,04,13,8.50
2019,05,25,04,14,8.50
2019,05,25,04,15,8.40
2019,05,25,04,16,8.40
2019,05,25,04,17,8.40
2019,05,25,04,18,8.30
2019,05,25,04,19,8.30
2019,05,25,04,20,8.30
2019,05,25,04,21,8.30
2019,05,25,04,22,8.20
2019,05,25,04,23,8.20
2019,05,25,04,24,8.20
2019,05,25,04,25,8.20
2019,05,25,04,26,8.20
2019,05,25,04,27,8.10
2019,05,25,04,28,8.10
2019,05,25,04,29,8.00
2019,05,25,04,30,8.00
2019,05,25,04,31,8.00
2019,05,25,04,32,8.10
2019,05,25,04,33,8.10
2019,05,25,04,34,8.10
2019,05,25,04,35,8.20
2019,05,25,04,36,8.20
2019,05,25,04,37,8.20
2019,05,25,04,38,8.30
2019,05,25,04,39,8.30
2019,05,25,04,40,8.40
2019,05,25,04,41,8.40
2019,05,25,04,42,8.50
2019,05,25,04,43,8.50
2019,05,25,04,44,8.60
2019,05,25,04,45,8.60
2019,05,25,04,46,8.70
2019,05,25,04,47,8.70
2019,05,25,04,48,8.70
2019,05,25,04,49,8.80
2019,05,25,04,50,8.80
2019,05,25,04,51,8.80
2019,05,25,04,52,8.80
2019,05,25,04,53,8.80
2019,05,25,04,54,8.80
2019,05,25,04,55,8.80
2019,05,25,04,56,8.80
2019,05,25,04,57,8.80
2019,05,25,04,58,8.80
2019,05,25,04,59,8.80
2019,05,25,05,00,8.80
2019,05,25,05,01,8.80
2019,05,25,05,02,8.80
2019,05,25,05,03,8.80
2019,05,25,05,04,8.80
2019,05,25,05,05,8.80
2019,05,25,05,06,8.80
2019,05,25,05,07,8.80
2019,05,25,05,08,8.80
2019,05,25,05,09,8.80
2019,05,25,05,10,8.80
2019,05,25,05,11,8.80
2019,05,25,05,12,8.70
2019,05,25,05,13,8.70
2019,05,25,05,14,8.70
2019,05,25,05,15,8.70
2019,05,25,05,16,8.70
2019,05,25,05,17,8.70
2019,05,25,05,18,8.60
2019,05,25,05,19,8.60
2019,05,25,05,20,8.60
2019,05,25,05,21,8.60
2019,05,25,05,22,8.50
2019,05,25,05,23,8.50
2019,05,25,05,24,8.40
2019,05,25,05,25,8.40
2019,05,25,05,26,8.40
2019,05,25,05,27,8.30
2019,05,25,05,28,8.30
2019,05,25,05,29,8.20
2019,05,25,05,30,8.20
2019,05,25,05,31,8.10
2019,05,25,05,32,8.10
2019,05,25,05,33,8.00
2019,05,25,05,34,8.00
2019,05,25,05,35,7.90
2019,05,25,05,36,7.90
2019,05,25,05,37,7.90
2019,05,25,05,38,7.80
2019,05,25,05,39,7.80
2019,05,25,05,40,7.80
2019,05,25,05,41,7.80
2019,05,25,05,42,7.70
2019,05,25,05,43,7.70
2019,05,25,05,44,7.70
2019,05,25,05,45,7.60
2019,05,25,05,46,7.60
2019,05,25,05,47,7.60
2019,05,25,05,48,7.60
2019,05,25,05,49,7.50
2019,05,25,05,50,7.50
2019,05,25,05,51,7.50
2019,05,25,05,52,7.40
2019,05,25,05,53,7.40
2019,05,25,05,54,7.40
2019,05,25,05,55,7.40
2019,05,25,05,56,7.50
2019,05,25,05,57,7.50
2019,05,25,05,58,7.60
2019,05,25,05,59,7.60
2019,05,25,06,00,7.70
2019,05,25,06,01,7.70
2019,05,25,06,02,7.80
2019,05,25,06,03,7.90
2019,05,25,06,04,8.00
2019,05,25,06,05,8.00
2019,05,25,06,06,8.10
2019,05,25,06,07,8.20
2019,05,25,06,08,8.30
2019,05,25,06,09,8.40
2019,05,25,06,10,8.50
2019,05,25,06,11,8.50
2019,05,25,06,12,8.60
2019,05,25,06,13,8.60
2019,05,25,06,14,8.70
2019,05,25,06,15,8.70
2019,05,25,06,16,8.80
2019,05,25,06,17,8.80
2019,05,25,06,18,8.80
2019,05,25,06,19,8.80
2019,05,25,06,20,8.90
2019,05,25,06,21,8.90
2019,05,25,06,22,8.90
2019,05,25,06,23,8.90
2019,05,25,06,24,8.90
2019,05,25,06,25,8.90
2019,05,25,06,26,9.00
2019,05,25,06,27,9.00
2019,05,25,06,28,9.10
2019,05,25,06,29,9.10
2019,05,25,06,30,9.10
2019,05,25,06,31,9.20
2019,05,25,06,32,9.20
2019,05,25,06,33,9.30
2019,05,25,06,34,9.30
2019,05,25,06,35,9.30
2019,05,25,06,36,9.30
2019,05,25,06,37,9.40
2019,05,25,06,38,9.40
2019,05,25,06,39,9.40
2019,05,25,06,40,9.50
2019,05,25,06,41,9.50
2019,05,25,06,42,9.50
2019,05,25,06,43,9.60
2019,05,25,06,44,9.60
2019,05,25,06,45,9.60
2019,05,25,06,46,9.60
2019,05,25,06,47,9.60
2019,05,25,06,48,9.70
2019,05,25,06,49,9.70
2019,05,25,06,50,9.70
2019,05,25,06,51,9.70
2019,05,25,06,52,9.80
2019,05,25,06,53,9.80
2019,05,25,06,54,9.80
2019,05,25,06,55,9.80
2019,05,25,06,56,9.80
2019,05,25,06,57,9.90
2019,05,25,06,58,9.90
2019,05,25,06,59,9.90
2019,05,25,07,00,10.00
2019,05,25,07,01,10.00
2019,05,25,07,02,10.10
2019,05,25,07,03,10.10
2019,05,25,07,04,10.10
2019,05,25,07,05,10.10
2019,05,25,07,06,10.20
2019,05,25,07,07,10.20
2019,05,25,07,08,10.20
2019,05,25,07,09,10.20
2019,05,25,07,10,10.20
2019,05,25,07,11,10.30
2019,05,25,07,12,10.30
2019,05,25,07,13,10.30
2019,05,25,07,14,10.40
2019,05,25,07,15,10.40
2019,05,25,07,16,10.40
2019,05,25,07,17,10.40
2019,05,25,07,18,10.40
2019,05,25,07,19,10.40
2019,05,25,07,20,10.50
2019,05,25,07,21,10.50
2019,05,25,07,22,10.50
2019,05,25,07,23,10.50
2019,05,25,07,24,10.50
2019,05,25,07,25,10.50
2019,05,25,07,26,10.50
2019,05,25,07,27,10.60
2019,05,25,07,28,10.60
2019,05,25,07,29,10.60
2019,05,25,07,30,10.60
2019,05,25,07,31,10.60
2019,05,25,07,32,10.60
2019,05,25,07,33,10.60
2019,05,25,07,34,10.70
2019,05,25,07,35,10.70
2019,05,25,07,36,10.80
2019,05,25,07,37,10.80
2019,05,25,07,38,10.80
2019,05,25,07,39,10.90
2019,05,25,07,40,10.90
2019,05,25,07,41,11.00
2019,05,25,07,42,11.00
2019,05,25,07,43,11.10
2019,05,25,07,44,11.10
2019,05,25,07,45,11.10
2019,05,25,07,46,11.10
2019,05,25,07,47,11.10
2019,05,25,07,48,11.20
2019,05,25,07,49,11.20
2019,05,25,07,50,11.20
2019,05,25,07,51,11.30
2019,05,25,07,52,11.30
2019,05,25,07,53,11.30
2019,05,25,07,54,11.30
2019,05,25,07,55,11.30
2019,05,25,07,56,11.30
2019,05,25,07,57,11.40
2019,05,25,07,58,11.40
2019,05,25,07,59,11.40
2019,05,25,08,00,11.40
2019,05,25,08,01,11.40
2019,05,25,08,02,11.40
2019,05,25,08,03,11.40
2019,05,25,08,04,11.40
2019,05,25,08,05,11.40
2019,05,25,08,06,11.50
2019,05,25,08,07,11.50
2019,05,25,08,08,11.60
2019,05,25,08,09,11.60
2019,05,25,08,10,11.60
2019,05,25,08,11,11.70
2019,05,25,08,12,11.70
2019,05,25,08,13,11.80
2019,05,25,08,14,11.80
2019,05,25,08,15,11.80
2019,05,25,08,16,11.80
2019,05,25,08,17,11.90
2019,05,25,08,18,11.90
2019,05,25,08,19,12.00
2019,05,25,08,20,12.00
2019,05,25,08,21,12.00
2019,05,25,08,22,12.00
2019,05,25,08,23,12.00
2019,05,25,08,24,12.00
2019,05,25,08,25,11.90
2019,05,25,08,26,11.90
2019,05,25,08,27,11.90
2019,05,25,08,28,12.00
2019,05,25,08,29,12.10
2019,05,25,08,30,12.10
2019,05,25,08,31,12.10
2019,05,25,08,32,12.10
2019,05,25,08,33,12.10
2019,05,25,08,34,12.10
2019,05,25,08,35,12.20
2019,05,25,08,36,12.20
2019,05,25,08,37,12.30
2019,05,25,08,38,12.30
2019,05,25,08,39,12.40
2019,05,25,08,40,12.50
2019,05,25,08,41,12.50
2019,05,25,08,42,12.60
2019,05,25,08,43,12.70
2019,05,25,08,44,12.70
2019,05,25,08,45,12.80
2019,05,25,08,46,12.80
2019,05,25,08,47,12.80
2019,05,25,08,48,12.70
2019,05,25,08,49,12.70
2019,05,25,08,50,12.70
2019,05,25,08,51,12.70
2019,05,25,08,52,12.70
2019,05,25,08,53,12.70
2019,05,25,08,54,12.60
2019,05,25,08,55,12.60
2019,05,25,08,56,12.60
2019,05,25,08,57,12.60
2019,05,25,08,58,12.60
2019,05,25,08,59,12.50
2019,05,25,09,00,12.40
2019,05,25,09,01,12.40
2019,05,25,09,02,12.30
2019,05,25,09,03,12.30
2019,05,25,09,04,12.30
2019,05,25,09,05,12.30
2019,05,25,09,06,12.20
2019,05,25,09,07,12.20
2019,05,25,09,08,12.20
2019,05,25,09,09,12.10
2019,05,25,09,10,12.10
2019,05,25,09,11,12.10
2019,05,25,09,12,12.10
2019,05,25,09,13,12.10
2019,05,25,09,14,12.10
2019,05,25,09,15,12.10
2019,05,25,09,16,12.10
2019,05,25,09,17,12.10
2019,05,25,09,18,12.10
2019,05,25,09,19,12.10
2019,05,25,09,20,12.00
2019,05,25,09,21,12.00
2019,05,25,09,22,12.00
2019,05,25,09,23,11.90
2019,05,25,09,24,11.90
2019,05,25,09,25,11.90
2019,05,25,09,26,11.90
2019,05,25,09,27,11.90
2019,05,25,09,28,11.90
2019,05,25,09,29,11.90
2019,05,25,09,30,11.90
2019,05,25,09,31,11.90
2019,05,25,09,32,11.90
2019,05,25,09,33,11.90
2019,05,25,09,34,12.00
2019,05,25,09,35,12.00
2019,05,25,09,36,12.10
2019,05,25,09,37,12.10
2019,05,25,09,38,12.20
2019,05,25,09,39,12.30
2019,05,25,09,40,12.30
2019,05,25,09,41,12.40
2019,05,25,09,42,12.50
2019,05,25,09,43,12.60
2019,05,25,09,44,12.70
2019,05,25,09,45,12.70
2019,05,25,09,46,12.70
2019,05,25,09,47,12.70
2019,05,25,09,48,12.80
2019,05,25,09,49,12.90
2019,05,25,09,50,13.00
2019,05,25,09,51,13.10
2019,05,25,09,52,13.20
2019,05,25,09,53,13.10
2019,05,25,09,54,13.10
2019,05,25,09,55,13.10
2019,05,25,09,56,13.20
2019,05,25,09,57,13.20
2019,05,25,09,58,13.20
2019,05,25,09,59,13.20
2019,05,25,10,00,13.20
2019,05,25,10,01,13.20
2019,05,25,10,02,13.20
2019,05,25,10,03,13.20
2019,05,25,10,04,13.20
2019,05,25,10,05,13.20
2019,05,25,10,06,13.30
2019,05,25,10,07,13.30
2019,05,25,10,08,13.30
2019,05,25,10,09,13.40
2019,05,25,10,10,13.40
2019,05,25,10,11,13.40
2019,05,25,10,12,13.40
2019,05,25,10,13,13.40
2019,05,25,10,14,13.40
2019,05,25,10,15,13.30
2019,05,25,10,16,13.30
2019,05,25,10,17,13.20
2019,05,25,10,18,13.30
2019,05,25,10,19,13.30
2019,05,25,10,20,13.40
2019,05,25,10,21,13.40
2019,05,25,10,22,13.40
2019,05,25,10,23,13.40
2019,05,25,10,24,13.40
2019,05,25,10,25,13.40
2019,05,25,10,26,13.40
2019,05,25,10,27,13.30
2019,05,25,10,28,13.40
2019,05,25,10,29,13.40
2019,05,25,10,30,13.40
2019,05,25,10,31,13.40
2019,05,25,10,32,13.40
2019,05,25,10,33,13.50
2019,05,25,10,34,13.50
2019,05,25,10,35,13.60
2019,05,25,10,36,13.60
2019,05,25,10,37,13.70
2019,05,25,10,38,13.80
2019,05,25,10,39,13.80
2019,05,25,10,40,13.80
2019,05,25,10,41,13.70
2019,05,25,10,42,13.70
2019,05,25,10,43,13.70
2019,05,25,10,44,13.60
2019,05,25,10,45,13.70
2019,05,25,10,46,13.70
2019,05,25,10,47,13.70
2019,05,25,10,48,13.80
2019,05,25,10,49,13.80
2019,05,25,10,50,13.80
2019,05,25,10,51,13.80
2019,05,25,10,52,13.80
2019,05,25,10,53,13.80
2019,05,25,10,54,13.80
2019,05,25,10,55,13.80
2019,05,25,10,56,13.80
2019,05,25,10,57,13.80
2019,05,25,10,58,13.90
2019,05,25,10,59,14.00
2019,05,25,11,00,14.10
2019,05,25,11,01,14.10
2019,05,25,11,02,14.10
2019,05,25,11,03,14.10
2019,05,25,11,04,14.10
2019,05,25,11,05,14.10
2019,05,25,11,06,14.20
2019,05,25,11,07,14.20
2019,05,25,11,08,14.30
2019,05,25,11,09,14.30
2019,05,25,11,10,14.30
2019,05,25,11,11,14.20
2019,05,25,11,12,14.20
2019,05,25,11,13,14.10
2019,05,25,11,14,14.10
2019,05,25,11,15,14.10
2019,05,25,11,16,14.00
2019,05,25,11,17,14.00
2019,05,25,11,18,14.10
2019,05,25,11,19,14.20
2019,05,25,11,20,14.20
2019,05,25,11,21,14.20
2019,05,25,11,22,14.10
2019,05,25,11,23,14.10
2019,05,25,11,24,14.20
2019,05,25,11,25,14.10
2019,05,25,11,26,14.10
2019,05,25,11,27,14.10
2019,05,25,11,28,14.00
2019,05,25,11,29,14.10
2019,05,25,11,30,14.10
2019,05,25,11,31,14.10
2019,05,25,11,32,14.20
2019,05,25,11,33,14.20
2019,05,25,11,34,14.10
2019,05,25,11,35,14.10
2019,05,25,11,36,14.20
2019,05,25,11,37,14.20
2019,05,25,11,38,14.30
2019,05,25,11,39,14.40
2019,05,25,11,40,14.40
2019,05,25,11,41,14.40
2019,05,25,11,42,14.50
2019,05,25,11,43,14.50
2019,05,25,11,44,14.60
2019,05,25,11,45,14.60
2019,05,25,11,46,14.60
2019,05,25,11,47,14.60
2019,05,25,11,48,14.60
2019,05,25,11,49,14.50
2019,05,25,11,50,14.50
2019,05,25,11,51,14.60
2019,05,25,11,52,14.60
2019,05,25,11,53,14.60
2019,05,25,11,54,14.70
2019,05,25,11,55,14.60
2019,05,25,11,56,14.60
2019,05,25,11,57,14.60
2019,05,25,11,58,14.70
2019,05,25,11,59,14.70
2019,05,25,12,00,14.70
2019,05,25,12,01,14.70
2019,05,25,12,02,14.80
2019,05,25,12,03,14.80
2019,05,25,12,04,14.90
2019,05,25,12,05,14.90
2019,05,25,12,06,14.90
2019,05,25,12,07,14.90
2019,05,25,12,08,14.90
2019,05,25,12,09,14.90
2019,05,25,12,10,14.90
2019,05,25,12,11,14.90
2019,05,25,12,12,15.00
2019,05,25,12,13,15.00
2019,05,25,12,14,15.10
2019,05,25,12,15,15.10
2019,05,25,12,16,15.10
2019,05,25,12,17,15.10
2019,05,25,12,18,15.10
2019,05,25,12,19,15.20
2019,05,25,12,20,15.20
2019,05,25,12,21,15.20
2019,05,25,12,22,15.20
2019,05,25,12,23,15.20
2019,05,25,12,24,15.20
2019,05,25,12,25,15.20
2019,05,25,12,26,15.10
2019,05,25,12,27,15.10
2019,05,25,12,28,15.10
2019,05,25,12,29,15.10
2019,05,25,12,30,15.10
2019,05,25,12,31,15.10
2019,05,25,12,32,15.10
2019,05,25,12,33,15.20
2019,05,25,12,34,15.20
2019,05,25,12,35,15.30
2019,05,25,12,36,15.40
2019,05,25,12,37,15.40
2019,05,25,12,38,15.40
2019,05,25,12,39,15.40
2019,05,25,12,40,15.40
2019,05,25,12,41,15.50
2019,05,25,12,42,15.50
2019,05,25,12,43,15.60
2019,05,25,12,44,15.70
2019,05,25,12,45,15.80
2019,05,25,12,46,15.90
2019,05,25,12,47,15.90
2019,05,25,12,48,16.00
2019,05,25,12,49,16.10
2019,05,25,12,50,16.10
2019,05,25,12,51,16.20
2019,05,25,12,52,16.20
2019,05,25,12,53,16.30
2019,05,25,12,54,16.40
2019,05,25,12,55,16.50
2019,05,25,12,56,16.50
2019,05,25,12,57,16.60
2019,05,25,12,58,16.60
2019,05,25,12,59,16.60
2019,05,25,13,00,16.50
2019,05,25,13,01,16.50
2019,05,25,13,02,16.50
2019,05,25,13,03,16.60
2019,05,25,13,04,16.70
2019,05,25,13,05,16.80
2019,05,25,13,06,16.80
2019,05,25,13,07,16.70
2019,05,25,13,08,16.70
2019,05,25,13,09,16.60
2019,05,25,13,10,16.50
2019,05,25,13,11,16.50
2019,05,25,13,12,16.60
2019,05,25,13,13,16.70
2019,05,25,13,14,16.70
2019,05,25,13,15,16.80
2019,05,25,13,16,16.80
2019,05,25,13,17,16.90
2019,05,25,13,18,16.90
2019,05,25,13,19,16.90
2019,05,25,13,20,17.00
2019,05,25,13,21,17.00
2019,05,25,13,22,17.00
2019,05,25,13,23,17.00
2019,05,25,13,24,17.00
2019,05,25,13,25,17.00
2019,05,25,13,26,17.00
2019,05,25,13,27,17.00
2019,05,25,13,28,17.20
2019,05,25,13,29,17.20
2019,05,25,13,30,17.20
2019,05,25,13,31,17.30
2019,05,25,13,32,17.40
2019,05,25,13,33,17.40
2019,05,25,13,34,17.50
2019,05,25,13,35,17.50
2019,05,25,13,36,17.60
2019,05,25,13,37,17.70
2019,05,25,13,38,17.80
2019,05,25,13,39,17.90
2019,05,25,13,40,17.90
2019,05,25,13,41,18.00
2019,05,25,13,42,18.10
2019,05,25,13,43,18.20
2019,05,25,13,44,18.30
2019,05,25,13,45,18.50
2019,05,25,13,46,18.60
2019,05,25,13,47,18.70
2019,05,25,13,48,18.60
2019,05,25,13,49,18.50
2019,05,25,13,50,18.50
2019,05,25,13,51,18.50
2019,05,25,13,52,18.40
2019,05,25,13,53,18.30
2019,05,25,13,54,18.30
2019,05,25,13,55,18.30
2019,05,25,13,56,18.30
2019,05,25,13,57,18.30
2019,05,25,13,58,18.40
2019,05,25,13,59,18.40
2019,05,25,14,00,18.40
2019,05,25,14,01,18.30
2019,05,25,14,02,18.20
2019,05,25,14,03,18.20
2019,05,25,14,04,18.20
2019,05,25,14,05,18.20
2019,05,25,14,06,18.20
2019,05,25,14,07,18.20
2019,05,25,14,08,18.20
2019,05,25,14,09,18.10
2019,05,25,14,10,18.10
2019,05,25,14,11,18.00
2019,05,25,14,12,17.90
2019,05,25,14,13,17.90
2019,05,25,14,14,17.80
2019,05,25,14,15,17.80
2019,05,25,14,16,17.80
2019,05,25,14,17,17.90
2019,05,25,14,18,17.90
2019,05,25,14,19,17.90
2019,05,25,14,20,18.00
2019,05,25,14,21,18.00
2019,05,25,14,22,18.10
2019,05,25,14,23,18.10
2019,05,25,14,24,18.10
2019,05,25,14,25,18.10
2019,05,25,14,26,18.10
2019,05,25,14,27,18.20
2019,05,25,14,28,18.20
2019,05,25,14,29,18.20
2019,05,25,14,30,18.30
2019,05,25,14,31,18.30
2019,05,25,14,32,18.40
2019,05,25,14,33,18.50
2019,05,25,14,34,18.60
2019,05,25,14,35,18.70
2019,05,25,14,36,18.80
2019,05,25,14,37,18.80
2019,05,25,14,38,18.80
2019,05,25,14,39,18.80
2019,05,25,14,40,18.80
2019,05,25,14,41,18.90
2019,05,25,14,42,19.00
2019,05,25,14,43,19.10
2019,05,25,14,44,19.10
2019,05,25,14,45,19.20
2019,05,25,14,46,19.20
2019,05,25,14,47,19.30
2019,05,25,14,48,19.30
2019,05,25,14,49,19.20
2019,05,25,14,50,19.10
2019,05,25,14,51,19.00
2019,05,25,14,52,19.00
2019,05,25,14,53,19.00
2019,05,25,14,54,19.00
2019,05,25,14,55,18.90
2019,05,25,14,56,18.90
2019,05,25,14,57,18.90
2019,05,25,14,58,18.80
2019,05,25,14,59,18.80
2019,05,25,15,00,18.70
2019,05,25,15,01,18.70
2019,05,25,15,02,18.70
2019,05,25,15,03,18.80
2019,05,25,15,04,18.80
2019,05,25,15,05,18.90
2019,05,25,15,06,18.90
2019,05,25,15,07,18.90
2019,05,25,15,08,18.90
2019,05,25,15,09,19.00
2019,05,25,15,10,19.10
2019,05,25,15,11,19.20
2019,05,25,15,12,19.20
2019,05,25,15,13,19.10
2019,05,25,15,14,19.10
2019,05,25,15,15,19.10
2019,05,25,15,16,19.10
2019,05,25,15,17,19.20
2019,05,25,15,18,19.30
2019,05,25,15,19,19.30
2019,05,25,15,20,19.40
2019,05,25,15,21,19.40
2019,05,25,15,22,19.40
2019,05,25,15,23,19.40
2019,05,25,15,24,19.40
2019,05,25,15,25,19.40
2019,05,25,15,26,19.40
2019,05,25,15,27,19.50
2019,05,25,15,28,19.50
2019,05,25,15,29,19.50
2019,05,25,15,30,19.50
2019,05,25,15,31,19.60
2019,05,25,15,32,19.60
2019,05,25,15,33,19.60
2019,05,25,15,34,19.60
2019,05,25,15,35,19.60
2019,05,25,15,36,19.70
2019,05,25,15,37,19.70
2019,05,25,15,38,19.70
2019,05,25,15,39,19.70
2019,05,25,15,40,19.80
2019,05,25,15,41,19.90
2019,05,25,15,42,19.90
2019,05,25,15,43,20.00
2019,05,25,15,44,20.10
2019,05,25,15,45,20.10
2019,05,25,15,46,20.10
2019,05,25,15,47,20.20
2019,05,25,15,48,20.20
2019,05,25,15,49,20.30
2019,05,25,15,50,20.40
2019,05,25,15,51,20.50
2019,05,25,15,52,20.50
2019,05,25,15,53,20.50
2019,05,25,15,54,20.50
2019,05,25,15,55,20.40
2019,05,25,15,56,20.40
2019,05,25,15,57,20.40
2019,05,25,15,58,20.30
2019,05,25,15,59,20.40
2019,05,25,16,00,20.30
2019,05,25,16,01,20.20
2019,05,25,16,02,20.20
2019,05,25,16,03,20.10
2019,05,25,16,04,20.00
2019,05,25,16,05,20.00
2019,05,25,16,06,20.00
2019,05,25,16,07,20.00
2019,05,25,16,08,20.10
2019,05,25,16,09,20.10
2019,05,25,16,10,20.10
2019,05,25,16,11,20.10
2019,05,25,16,12,20.10
2019,05,25,16,13,20.10
2019,05,25,16,14,20.10
2019,05,25,16,15,20.10
2019,05,25,16,16,20.20
2019,05,25,16,17,20.30
2019,05,25,16,18,20.30
2019,05,25,16,19,20.30
2019,05,25,16,20,20.30
2019,05,25,16,21,20.30
2019,05,25,16,22,20.30
2019,05,25,16,23,20.40
2019,05,25,16,24,20.30
2019,05,25,16,25,20.30
2019,05,25,16,26,20.30
2019,05,25,16,27,20.30
2019,05,25,16,28,20.40
2019,05,25,16,29,20.40
2019,05,25,16,30,20.40
2019,05,25,16,31,20.50
2019,05,25,16,32,20.50
2019,05,25,16,33,20.50
2019,05,25,16,34,20.50
2019,05,25,16,35,20.50
2019,05,25,16,36,20.50
2019,05,25,16,37,20.50
2019,05,25,16,38,20.50
2019,05,25,16,39,20.50
2019,05,25,16,40,20.50
2019,05,25,16,41,20.50
2019,05,25,16,42,20.50
2019,05,25,16,43,20.40
2019,05,25,16,44,20.40
2019,05,25,16,45,20.50
2019,05,25,16,46,20.50
2019,05,25,16,47,20.50
2019,05,25,16,48,20.60
2019,05,25,16,49,20.60
2019,05,25,16,50,20.70
2019,05,25,16,51,20.80
2019,05,25,16,52,20.90
2019,05,25,16,53,21.00
2019,05,25,16,54,21.00
2019,05,25,16,55,21.10
2019,05,25,16,56,21.20
2019,05,25,16,57,21.40
2019,05,25,16,58,21.40
2019,05,25,16,59,21.40
2019,05,25,17,00,21.40
2019,05,25,17,01,21.50
2019,05,25,17,02,21.60
2019,05,25,17,03,21.60
2019,05,25,17,04,21.70
2019,05,25,17,05,21.70
2019,05,25,17,06,21.80
2019,05,25,17,07,21.70
2019,05,25,17,08,21.70
2019,05,25,17,09,21.70
2019,05,25,17,10,21.70
2019,05,25,17,11,21.70
2019,05,25,17,12,21.70
2019,05,25,17,13,21.80
2019,05,25,17,14,21.80
2019,05,25,17,15,21.80
2019,05,25,17,16,21.80
2019,05,25,17,17,21.90
2019,05,25,17,18,21.90
2019,05,25,17,19,21.80
2019,05,25,17,20,21.80
2019,05,25,17,21,21.80
2019,05,25,17,22,21.80
2019,05,25,17,23,21.70
2019,05,25,17,24,21.60
2019,05,25,17,25,21.60
2019,05,25,17,26,21.50
2019,05,25,17,27,21.50
2019,05,25,17,28,21.50